• In Netherlands
  • List of Countries
  • For 7 days
  • Water Temperature
  • Satellite Maps
  • Weather Map
  • Weather Widgets
  • user-avatar
    Login

    Hourly Weather Perth

    Today, 26 April, Wednesday

    Time Temperature Precipitation Wind Pressure Humidity
    00:00 +13°C° 0 mm 3 mps 768 mmHg 66%
    01:00 +13°C° 0 mm 3 mps 768 mmHg 67%
    02:00 +13°C° 0 mm 3 mps 768 mmHg 70%
    03:00 +13°C° 0 mm 3 mps 768 mmHg 71%
    04:00 +12°C° 0 mm 3 mps 768 mmHg 72%
    05:00 +12°C° 0 mm 3 mps 768 mmHg 73%
    06:00 +13°C° 0 mm 3 mps 768 mmHg 70%
    07:00 +14°C° 0 mm 3 mps 768 mmHg 66%
    08:00 +16°C° 0 mm 3 mps 768 mmHg 62%
    09:00 +19°C° 0 mm 2 mps 768 mmHg 54%
    10:00 +21°C° 0 mm 2 mps 768 mmHg 45%
    11:00 +25°C° 0 mm 2 mps 768 mmHg 36%
    12:00 +26°C° 0 mm 2 mps 767 mmHg 32%
    13:00 +27°C° 0 mm 2 mps 767 mmHg 29%
    14:00 +28°C° 0 mm 2 mps 766 mmHg 26%
    15:00 +27°C° 0 mm 3 mps 766 mmHg 29%
    16:00 +26°C° 0 mm 3 mps 766 mmHg 33%
    17:00 +25°C° 0 mm 3 mps 766 mmHg 37%
    18:00 +22°C° 0 mm 3 mps 766 mmHg 43%
    19:00 +19°C° 0 mm 3 mps 767 mmHg 49%
    20:00 +17°C° 0 mm 3 mps 767 mmHg 56%
    21:00 +17°C° 0 mm 3 mps 767 mmHg 55%
    22:00 +16°C° 0 mm 3 mps 767 mmHg 55%
    23:00 +16°C° 0 mm 3 mps 767 mmHg 54%

    Tomorrow, 27 April, Thursday

    Time Temperature Precipitation Wind Pressure Humidity
    00:00 +16°C° 0 mm 3 mps 767 mmHg 54%
    01:00 +16°C° 0 mm 3 mps 767 mmHg 54%
    02:00 +16°C° 0 mm 2 mps 767 mmHg 54%
    03:00 +15°C° 0 mm 2 mps 767 mmHg 56%
    04:00 +15°C° 0 mm 2 mps 767 mmHg 57%
    05:00 +15°C° 0 mm 2 mps 767 mmHg 58%
    06:00 +16°C° 0 mm 2 mps 767 mmHg 56%
    07:00 +16°C° 0 mm 2 mps 768 mmHg 54%
    08:00 +17°C° 0 mm 2 mps 768 mmHg 52%
    09:00 +20°C° 0 mm 2 mps 768 mmHg 45%
    10:00 +24°C° 0 mm 1 mps 768 mmHg 37%
    11:00 +27°C° 0 mm 1 mps 768 mmHg 30%
    12:00 +28°C° 0 mm 1 mps 767 mmHg 28%
    13:00 +29°C° 0 mm 1 mps 766 mmHg 26%
    14:00 +30°C° 0 mm 2 mps 766 mmHg 24%
    15:00 +28°C° 0 mm 2 mps 766 mmHg 27%
    16:00 +27°C° 0 mm 3 mps 766 mmHg 31%
    17:00 +26°C° 0 mm 3 mps 765 mmHg 35%
    18:00 +22°C° 0 mm 3 mps 766 mmHg 42%
    19:00 +20°C° 0 mm 3 mps 766 mmHg 50%
    20:00 +17°C° 0 mm 3 mps 767 mmHg 58%
    21:00 +17°C° 0 mm 3 mps 767 mmHg 57%
    22:00 +17°C° 0 mm 3 mps 767 mmHg 57%
    23:00 +16°C° 0 mm 3 mps 767 mmHg 57%

    Day after tomorrow, 28 April, Friday

    Time Temperature Precipitation Wind Pressure Humidity
    00:00 +16°C° 0 mm 3 mps 767 mmHg 55%
    01:00 +16°C° 0 mm 2 mps 767 mmHg 54%
    02:00 +16°C° 0 mm 2 mps 767 mmHg 52%
    03:00 +16°C° 0 mm 2 mps 767 mmHg 53%
    04:00 +16°C° 0 mm 2 mps 767 mmHg 54%
    05:00 +16°C° 0 mm 2 mps 767 mmHg 55%
    06:00 +16°C° 0 mm 2 mps 767 mmHg 52%
    07:00 +17°C° 0 mm 2 mps 768 mmHg 49%
    08:00 +18°C° 0 mm 2 mps 768 mmHg 46%
    09:00 +21°C° 0 mm 2 mps 768 mmHg 39%
    10:00 +25°C° 0 mm 1 mps 768 mmHg 33%
    11:00 +28°C° 0 mm 1 mps 768 mmHg 26%
    12:00 +28°C° 0 mm 1 mps 767 mmHg 25%
    13:00 +29°C° 0 mm 2 mps 767 mmHg 25%
    14:00 +30°C° 0 mm 2 mps 766 mmHg 24%
    15:00 +28°C° 0 mm 2 mps 766 mmHg 29%
    16:00 +27°C° 0 mm 3 mps 766 mmHg 33%
    17:00 +25°C° 0 mm 3 mps 766 mmHg 37%
    18:00 +22°C° 0 mm 3 mps 766 mmHg 46%
    19:00 +19°C° 0 mm 3 mps 767 mmHg 55%
    20:00 +16°C° 0 mm 3 mps 767 mmHg 64%
    21:00 +17°C° 0 mm 2 mps 767 mmHg 60%
    22:00 +17°C° 0 mm 2 mps 768 mmHg 55%
    23:00 +17°C° 0 mm 2 mps 768 mmHg 50%

    29 April, Saturday

    Time Temperature Precipitation Wind Pressure Humidity
    00:00 +17°C° 0 mm 3 mps 768 mmHg 51%
    01:00 +16°C° 0 mm 3 mps 767 mmHg 52%
    02:00 +16°C° 0 mm 3 mps 767 mmHg 52%
    03:00 +16°C° 0 mm 3 mps 767 mmHg 54%
    04:00 +14°C° 0 mm 3 mps 767 mmHg 55%
    05:00 +14°C° 0 mm 3 mps 767 mmHg 56%
    06:00 +16°C° 0 mm 3 mps 767 mmHg 53%
    07:00 +17°C° 0 mm 3 mps 768 mmHg 49%
    08:00 +17°C° 0 mm 3 mps 768 mmHg 46%
    09:00 +20°C° 0 mm 3 mps 768 mmHg 39%
    10:00 +24°C° 0 mm 2 mps 768 mmHg 32%
    11:00 +27°C° 0 mm 2 mps 768 mmHg 25%
    12:00 +28°C° 0 mm 2 mps 767 mmHg 24%
    13:00 +28°C° 0 mm 2 mps 766 mmHg 23%
    14:00 +29°C° 0 mm 3 mps 766 mmHg 22%
    15:00 +28°C° 0 mm 3 mps 766 mmHg 27%
    16:00 +26°C° 0 mm 3 mps 766 mmHg 32%
    17:00 +25°C° 0 mm 3 mps 766 mmHg 36%
    18:00 +21°C° 0 mm 3 mps 766 mmHg 42%
    19:00 +19°C° 0 mm 3 mps 767 mmHg 48%
    20:00 +16°C° 0 mm 3 mps 767 mmHg 54%
    21:00 +16°C° 0 mm 2 mps 767 mmHg 52%
    22:00 +16°C° 0 mm 2 mps 767 mmHg 51%
    23:00 +16°C° 0 mm 2 mps 767 mmHg 50%

    30 April, Sunday

    Time Temperature Precipitation Wind Pressure Humidity
    00:00 +16°C° 0 mm 2 mps 767 mmHg 50%
    01:00 +16°C° 0 mm 2 mps 767 mmHg 50%
    02:00 +16°C° 0 mm 2 mps 767 mmHg 49%
    03:00 +15°C° 0 mm 2 mps 767 mmHg 50%
    04:00 +15°C° 0 mm 2 mps 767 mmHg 52%
    05:00 +14°C° 0 mm 2 mps 767 mmHg 53%
    06:00 +16°C° 0 mm 2 mps 767 mmHg 49%
    07:00 +17°C° 0 mm 2 mps 767 mmHg 45%
    08:00 +18°C° 0 mm 2 mps 767 mmHg 42%
    09:00 +22°C° 0 mm 1 mps 767 mmHg 35%
    10:00 +25°C° 0 mm 1 mps 767 mmHg 29%
    11:00 +27°C° 0 mm 0 mps 767 mmHg 22%
    12:00 +29°C° 0 mm 1 mps 766 mmHg 23%
    13:00 +29°C° 0 mm 2 mps 766 mmHg 23%
    14:00 +29°C° 0 mm 3 mps 765 mmHg 24%
    15:00 +28°C° 0 mm 3 mps 765 mmHg 29%
    16:00 +27°C° 0 mm 3 mps 765 mmHg 34%
    17:00 +25°C° 0 mm 3 mps 765 mmHg 39%
    18:00 +22°C° 0 mm 3 mps 766 mmHg 49%
    19:00 +20°C° 0 mm 3 mps 766 mmHg 58%
    20:00 +18°C° 0 mm 3 mps 767 mmHg 68%
    21:00 +18°C° 0 mm 3 mps 767 mmHg 68%
    22:00 +18°C° 0 mm 3 mps 767 mmHg 69%
    23:00 +18°C° 0 mm 4 mps 767 mmHg 69%

    1 May, Monday

    Time Temperature Precipitation Wind Pressure Humidity
    00:00 +17°C° 0 mm 4 mps 767 mmHg 71%
    01:00 +17°C° 0 mm 4 mps 767 mmHg 72%
    02:00 +17°C° 0 mm 4 mps 767 mmHg 74%
    03:00 +17°C° 0 mm 4 mps 767 mmHg 76%
    04:00 +17°C° 0 mm 3 mps 767 mmHg 79%
    05:00 +16°C° 0 mm 3 mps 767 mmHg 82%
    06:00 +17°C° 0 mm 4 mps 767 mmHg 81%
    07:00 +17°C° 0 mm 4 mps 767 mmHg 80%
    08:00 +17°C° 0 mm 4 mps 767 mmHg 80%
    09:00 +19°C° 0 mm 3 mps 767 mmHg 71%
    10:00 +21°C° 0 mm 3 mps 767 mmHg 62%
    11:00 +24°C° 0 mm 3 mps 767 mmHg 53%
    12:00 +26°C° 0 mm 2 mps 766 mmHg 47%
    13:00 +27°C° 0 mm 2 mps 766 mmHg 42%
    14:00 +29°C° 0 mm 2 mps 765 mmHg 36%
    15:00 +28°C° 0 mm 2 mps 765 mmHg 40%
    16:00 +26°C° 0 mm 2 mps 765 mmHg 44%
    17:00 +25°C° 0 mm 3 mps 765 mmHg 48%
    18:00 +22°C° 0 mm 3 mps 766 mmHg 56%
    19:00 +20°C° 0 mm 3 mps 766 mmHg 63%
    20:00 +18°C° 0 mm 3 mps 767 mmHg 71%
    21:00 +18°C° 0 mm 4 mps 767 mmHg 72%
    22:00 +17°C° 0 mm 4 mps 767 mmHg 72%
    23:00 +17°C° 0 mm 4 mps 767 mmHg 73%
    Show more